Location: Banksville Park
(38.5557°N, 75.1182°W)
Time: 12:25:07
(UTC+00:00)

Cosmos 1980 Rocket - Pass Details

Date: 19 September 2020
Orbit: 831 x 848 km, 71.0° (Epoch: 23 October)

Event Time Altitude Azimuth Distance (km) Brightness Sun altitude
Exits shadow 09:22:48 24° 279° (W) 1,675 3.2 -16.9°
Maximum altitude 09:24:14 27° 303° (WNW) 1,574 3.3 -16.6°
Drops below altitude 10° 09:28:59 10° 0° (N) 2,468 4.8 -15.7°
Sets 09:31:49 0° 13° (NNE) 3,404 5.7 -15.2°
